TimeEST,TemperatureF,Dew PointF,Humidity,Sea Level PressureIn,VisibilityMPH,Wind Direction,Wind SpeedMPH,Gust SpeedMPH,PrecipitationIn,Events,Conditions,WindDirDegrees,DateUTC
12:56 AM,33.1,27.0,78,29.99,10.0,East,4.6,-,N/A,,Overcast,90,2012-11-07 05:56:00
1:56 AM,32.0,28.0,85,29.99,9.0,East,4.6,-,N/A,,Overcast,80,2012-11-07 06:56:00
2:56 AM,32.0,27.0,82,29.99,10.0,Calm,Calm,-,N/A,,Overcast,0,2012-11-07 07:56:00
3:56 AM,30.9,26.1,82,29.99,9.0,ENE,3.5,-,N/A,,Overcast,70,2012-11-07 08:56:00
4:56 AM,28.9,25.0,85,30.01,9.0,Calm,Calm,-,N/A,,Clear,0,2012-11-07 09:56:00
5:56 AM,28.0,24.1,85,30.02,9.0,NE,3.5,-,N/A,,Clear,50,2012-11-07 10:56:00
6:56 AM,28.0,23.0,81,30.03,10.0,NE,3.5,-,N/A,,Scattered Clouds,50,2012-11-07 11:56:00
7:56 AM,28.9,24.1,82,30.05,10.0,Calm,Calm,-,N/A,,Clear,0,2012-11-07 12:56:00
8:56 AM,33.1,26.1,75,30.06,10.0,ENE,4.6,-,N/A,,Partly Cloudy,70,2012-11-07 13:56:00
9:56 AM,37.9,27.0,65,30.07,10.0,ENE,5.8,-,N/A,,Clear,60,2012-11-07 14:56:00
10:56 AM,43.0,28.9,58,30.08,10.0,NNE,8.1,-,N/A,,Clear,20,2012-11-07 15:56:00
11:56 AM,46.0,28.0,50,30.08,10.0,Variable,4.6,-,N/A,,Clear,0,2012-11-07 16:56:00
12:56 PM,46.0,28.0,50,30.07,10.0,Calm,Calm,-,N/A,,Clear,0,2012-11-07 17:56:00
1:56 PM,46.9,28.9,50,30.06,10.0,Variable,3.5,-,N/A,,Clear,0,2012-11-07 18:56:00
2:56 PM,48.9,28.9,46,30.05,10.0,NNW,3.5,-,N/A,,Clear,340,2012-11-07 19:56:00
3:56 PM,48.0,28.0,46,30.07,10.0,NNE,6.9,-,N/A,,Clear,20,2012-11-07 20:56:00
4:56 PM,45.0,28.9,53,30.09,10.0,North,3.5,-,N/A,,Clear,360,2012-11-07 21:56:00
5:56 PM,39.9,28.9,65,30.11,10.0,North,4.6,-,N/A,,Clear,10,2012-11-07 22:56:00
6:56 PM,37.9,28.9,70,30.13,8.0,NNE,3.5,-,N/A,,Clear,20,2012-11-07 23:56:00
7:56 PM,36.0,28.0,73,30.14,10.0,Calm,Calm,-,N/A,,Clear,0,2012-11-08 00:56:00
8:56 PM,36.0,28.0,73,30.15,10.0,NE,3.5,-,N/A,,Clear,50,2012-11-08 01:56:00
9:56 PM,34.0,28.0,79,30.17,10.0,Calm,Calm,-,N/A,,Clear,0,2012-11-08 02:56:00
10:56 PM,34.0,28.0,79,30.16,9.0,Calm,Calm,-,N/A,,Clear,0,2012-11-08 03:56:00
11:56 PM,30.9,26.1,82,30.17,7.0,Calm,Calm,-,N/A,,Clear,0,2012-11-08 04:56:00